Location: *
(37.5724°S, 58.0067°E)
Time: 20:41:41
(UTC+00:00)

USA 308 - Pass Details

Date: 26 September 2020
Orbit: 570 x 580 km, 54.0° (Epoch: 27 October)

Event Time Altitude Azimuth Distance (km) Brightness Sun altitude
Rises 15:21:30 0° 227° (SW) 2,826 7.6 -15.2°
Reaches altitude 10° 15:23:47 10° 227° (SW) 1,920 6.6 -15.6°
Maximum altitude 15:28:11 86° 317° (NW) 592 2.9 -16.5°
Enters shadow 15:30:23 29° 43° (NE) 1,092 3.8 -16.9°
